651 Weather Reports


time (UTC)temp
C
wind
direction
speed
KPH
gust
KPH
rain 1hr
cm
rain 24hr
cm
rain mn
cm
humidity
%
barometer
mb
20260504140106 18 0 0.0 0.0 0.00 0.00 0.00 48 1020.2
20260504081600 18 0 0.0 0.0 0.00 0.00 0.00 55 1022.1
20260504080106 18 0 0.0 0.0 0.00 0.00 0.00 53 1021.8
20260504060109 14 0 0.0 0.0 0.00 0.00 0.00 63 1021.8
20260504050106 11 0 0.0 0.0 0.00 0.00 0.00 67 1021.5
20260504044601 11 0 0.0 1.6 0.00 0.00 0.00 67 1021.4
20260504043059 10 0 0.0 0.0 0.00 0.00 0.00 66 1021.2
20260504041605 11 0 0.0 3.2 0.00 0.00 0.00 64 1021.0
20260504034600 11 0 0.0 4.8 0.00 0.00 0.00 64 1020.8
20260504033057 10 242 0.0 3.2 0.00 0.00 0.00 64 1020.8
20260504031557 11 0 0.0 0.0 0.00 0.00 0.00 64 1020.9
20260504030100 11 242 0.0 1.6 0.00 0.00 0.00 64 1021.0
20260504024616 11 0 0.0 1.6 0.00 0.00 0.00 63 1021.0
20260504023058 11 0 0.0 1.6 0.00 0.00 0.00 63 1021.2
20260504021600 11 0 0.0 1.6 0.00 0.00 0.00 63 1021.2
20260504020057 10 0 0.0 0.0 0.00 0.00 0.00 68 1021.2
20260504014606 10 0 0.0 0.0 0.00 0.00 0.00 67 1021.2
20260504013101 10 0 0.0 0.0 0.00 0.00 0.00 66 1021.1
20260504011559 10 0 0.0 0.0 0.00 0.00 0.00 66 1021.1
20260504010105 10 0 0.0 0.0 0.00 0.00 0.00 66 1021.2
20260504004600 11 0 0.0 3.2 0.00 0.00 0.00 68 1021.1
20260504003100 11 0 0.0 4.8 0.00 0.00 0.00 66 1021.1
20260504001557 12 0 0.0 0.0 0.00 0.00 0.00 58 1021.2
20260504000139 12 0 0.0 1.6 0.00 0.00 0.00 58 1021.1
20260503234603 12 0 0.0 4.8 0.00 0.00 0.00 61 1021.3
20260503233057 12 0 0.0 1.6 0.00 0.00 0.00 61 1021.4
20260503231600 12 0 0.0 0.0 0.00 0.00 0.00 59 1021.5
20260503230058 12 0 0.0 1.6 0.00 0.00 0.00 59 1021.6
20260503224600 11 0 0.0 1.6 0.00 0.00 0.00 59 1021.8
20260503223100 11 0 0.0 1.6 0.00 0.00 0.00 59 1021.9
20260503221600 12 213 0.0 6.4 0.00 0.00 0.00 60 1022.0
20260503220100 12 0 0.0 1.6 0.00 0.00 0.00 59 1022.0
20260503214601 12 0 0.0 1.6 0.00 0.00 0.00 59 1021.9
20260503213107 12 0 0.0 1.6 0.00 0.00 0.00 58 1022.0
20260503211619 12 0 0.0 0.0 0.00 0.00 0.00 58 1021.9
20260503210101 12 0 0.0 1.6 0.00 0.00 0.00 57 1022.0
20260503204559 12 0 0.0 3.2 0.00 0.00 0.00 57 1021.9
20260503203113 13 0 0.0 3.2 0.00 0.00 0.00 56 1021.7
20260503201558 13 0 0.0 0.0 0.00 0.00 0.00 55 1021.6
20260503200057 12 0 0.0 0.0 0.00 0.00 0.00 57 1021.9
20260503194601 12 0 0.0 0.0 0.00 0.00 0.00 58 1021.9
20260503193058 12 0 0.0 0.0 0.00 0.00 0.00 58 1022.0
20260503191609 12 0 0.0 0.0 0.00 0.00 0.00 58 1021.9
20260503184603 12 0 0.0 0.0 0.00 0.00 0.00 56 1021.1
20260503183102 11 0 0.0 0.0 0.00 0.00 0.00 59 1021.3
20260503181605 12 0 0.0 0.0 0.00 0.00 0.00 57 1021.2
20260503180112 12 0 0.0 0.0 0.00 0.00 0.00 55 1021.3
20260503174600 12 0 0.0 0.0 0.00 0.00 0.00 58 1021.3
20260503173102 12 0 0.0 0.0 0.00 0.00 0.00 57 1021.0
20260503171603 12 0 0.0 0.0 0.00 0.00 0.00 55 1021.0
20260503150106 15 0 0.0 0.0 0.00 0.00 0.00 49 1021.3